Wind_Speed
18 18 16 14 10 8 8 11 13 15 16 16 15 16 16 15 17 17 17 15 14 15 14 13 13 14 16 17 18 18 19 19 19 19 22 23 23 24 24 24 25 27 30 29
21 21 19 16 14 10 8 8 9 11 12 12 14 12 10 12 11 14 15 13 12 14 16 17 17 17 19 21 22 21 21 22 23 23 26 29 31 31 29 28 27 28 27 29
25 24 22 20 18 15 11 9 7 8 9 11 11 11 13 13 11 13 15 15 15 15 18 19 18 18 18 18 20 23 25 28 30 30 31 32 34 33 33 34 35 34 31 31
30 26 26 24 22 19 15 13 11 9 8 10 9 12 8 9 10 15 15 15 15 15 16 19 20 19 20 22 25 26 28 29 32 33 34 37 40 39 37 36 36 36 35 35
36 32 30 29 26 23 21 18 16 14 12 12 13 8 14 13 14 14 15 16 17 19 19 22 23 25 25 26 27 29 31 31 33 36 38 41 42 44 44 42 39 40 39 39
39 38 37 35 32 29 26 23 21 19 18 16 16 18 11 14 17 18 19 21 25 24 24 25 27 30 30 30 31 33 33 35 36 40 41 42 45 48 48 49 48 46 45 44
47 44 42 39 38 35 32 29 26 24 23 23 21 22 20 18 18 20 17 21 26 28 30 29 29 32 33 35 36 38 39 40 42 43 46 47 51 53 52 54 53 51 47 44
49 46 44 45 43 40 38 35 33 32 27 28 24 26 26 23 21 22 22 23 29 31 33 35 35 36 36 38 39 41 42 43 45 47 47 48 51 53 57 59 59 57 55 50
55 52 49 46 47 45 45 42 40 37 36 35 31 29 31 28 29 28 28 31 28 34 36 36 38 38 40 40 41 43 45 46 48 51 52 54 57 58 58 62 62 60 57 55
58 57 51 49 49 48 50 49 47 44 42 41 41 39 33 28 34 32 32 33 35 34 40 40 39 40 43 43 45 46 46 49 51 53 55 55 58 62 64 67 67 64 62 60
64 61 56 54 49 51 54 53 53 50 48 46 49 43 40 37 40 38 37 36 37 40 38 44 44 43 46 47 49 49 49 51 54 56 58 58 60 62 66 68 68 67 65 63
68 65 62 55 53 58 56 55 55 57 54 54 52 54 44 45 47 45 45 44 44 43 44 46 47 47 51 52 53 54 54 55 58 60 61 63 65 67 69 72 71 71 68 67
74 70 66 64 59 58 59 58 58 59 60 57 56 59 52 50 49 47 48 48 48 50 48 50 52 51 53 56 57 58 58 58 61 62 64 66 70 72 74 75 76 74 72 71
82 76 68 66 65 63 62 64 61 61 59 59 59 66 54 57 53 52 56 51 53 50 53 53 54 52 54 58 61 60 62 62 64 67 69 71 74 77 78 79 78 76 76 75
87 80 75 70 69 68 67 63 64 62 61 62 60 65 62 64 52 54 60 60 57 56 56 55 57 57 56 62 64 65 67 67 68 72 72 74 76 79 82 85 82 80 80 79
87 83 77 76 76 73 71 69 65 64 64 62 64 65 67 66 56 56 63 65 63 61 63 62 58 62 62 64 67 68 68 73 74 75 76 77 79 81 83 87 84 84 85 81
85 85 85 82 79 78 76 68 70 71 69 67 65 70 73 65 60 61 65 68 67 66 67 66 70 65 64 66 69 70 74 75 78 79 79 80 83 85 86 89 88 89 89 81
85 87 88 84 84 86 74 76 76 77 73 70 70 71 72 68 63 66 67 68 69 70 70 71 71 72 68 70 72 74 76 78 79 81 80 82 85 87 90 90 90 90 91 77
87 80 82 86 88 83 84 85 82 81 74 76 79 74 75 70 63 70 69 68 70 71 72 73 74 75 72 75 73 77 78 80 81 82 82 84 87 91 93 92 91 92 86 69
78 80 65 64 90 89 84 88 86 84 78 81 82 78 75 74 68 73 72 72 71 73 76 76 76 74 76 77 75 79 81 82 85 84 86 89 92 93 94 93 93 94 80 71
83 93 93 96 88 87 86 90 85 85 79 87 89 84 78 76 76 80 76 76 75 76 76 78 76 76 76 79 77 83 86 87 86 87 90 93 93 96 96 97 98 94 78 75
85 94 91 94 94 90 90 95 92 90 80 86 91 86 83 83 86 83 83 80 76 81 80 79 76 75 77 79 81 85 89 91 92 94 96 96 93 98 98 98 96 84 78 77
90 90 81 73 89 91 90 94 92 90 88 83 88 88 85 87 86 84 85 89 78 78 82 78 77 77 79 81 84 90 94 97 97 100 100 96 102 100 101 102 93 81 78 71
86 79 83 88 83 67 61 76 89 94 93 88 89 87 88 90 88 86 87 90 83 82 81 80 78 80 80 81 87 96 100 97 110 104 95 107 103 102 101 90 83 82 84 89
64 67 76 88 76 55 81 85 88 89 90 89 90 89 88 87 86 87 87 87 85 84 83 82 80 81 80 69 74 76 65 109 106 103 101 107 108 105 87 82 62 99 94 94
71 69 64 79 83 85 84 86 87 87 87 88 87 86 87 86 86 87 85 85 85 86 88 84 82 77 65 50 87 96 106 97 100 98 104 110 104 91 92 89 91 94 93 91
Wind_Direction
298 311 323 328 336 350 8 22 35 44 48 33 43 45 40 51 57 54 50 43 37 33 31 25 19 19 18 13 7 2 358 353 347 340 335 328 320 313 309 304 297 293 293 292
283 290 304 310 314 319 325 343 11 22 30 42 24 35 22 12 16 36 34 25 25 22 14 15 10 9 8 9 14 10 5 1 358 351 344 338 333 327 322 316 307 300 294 290
271 275 285 296 303 303 303 307 324 349 359 359 10 17 29 342 358 28 20 10 5 2 359 358 359 357 352 355 1 357 355 356 356 355 355 349 347 341 330 323 318 313 304 296
266 267 271 280 289 293 292 292 296 304 315 326 346 344 356 354 327 20 11 3 1 3 -0 355 351 344 340 341 345 347 347 348 350 350 350 349 348 346 341 333 323 317 312 306
262 264 263 267 273 281 282 286 287 291 296 301 301 316 327 337 354 333 340 343 344 339 344 343 345 347 350 350 347 342 342 343 345 346 346 346 345 345 342 339 332 323 318 312
262 261 259 257 263 269 273 277 285 285 287 287 294 298 304 322 318 324 324 333 328 328 334 337 337 339 341 344 343 341 340 341 340 339 341 342 342 343 342 340 335 331 323 315
255 256 257 257 256 260 265 268 273 278 282 284 285 288 291 298 311 308 317 311 320 325 327 329 332 332 334 337 338 338 338 339 339 338 337 339 341 341 340 341 336 332 325 317
255 257 258 254 255 257 259 263 266 271 274 275 283 286 286 289 291 292 295 307 317 319 321 323 326 326 329 329 332 331 333 334 336 335 334 335 338 337 338 339 338 333 328 321
252 252 254 253 254 256 259 261 262 265 269 275 274 276 286 294 295 298 303 306 308 310 311 315 318 319 321 324 324 326 328 331 331 332 333 334 334 335 337 337 335 332 329 323
251 252 251 252 253 255 258 259 262 263 264 268 272 273 275 284 288 293 296 299 302 301 302 307 311 313 314 316 318 320 324 326 327 329 331 331 330 333 336 335 333 331 327 322
248 250 251 250 251 252 254 258 262 264 267 268 269 273 274 278 280 282 286 290 294 295 296 298 302 305 306 310 312 317 320 321 324 326 328 327 329 331 332 333 331 330 326 324
247 247 250 248 248 253 252 256 260 263 264 266 271 274 276 277 278 282 286 289 292 294 295 297 299 301 303 307 311 314 316 320 323 323 324 325 327 329 330 330 329 329 326 324
247 248 248 249 248 250 256 255 258 261 264 266 269 271 273 275 275 279 281 286 290 296 296 298 301 302 303 305 309 312 315 316 318 319 322 324 324 327 328 329 329 329 327 325
245 247 248 251 252 250 249 255 256 259 262 266 269 273 271 274 275 280 283 284 289 290 295 297 298 299 299 300 305 309 311 313 316 318 321 323 323 325 326 327 327 328 327 327
244 245 247 250 254 254 254 251 258 259 262 265 267 270 272 270 272 276 282 285 286 289 292 293 297 297 298 299 303 306 309 311 315 316 319 320 321 323 325 325 327 328 327 325
243 246 248 248 250 253 254 256 254 259 263 265 267 271 268 272 274 278 278 280 284 287 291 293 292 295 297 296 300 306 305 309 313 315 318 318 319 321 322 323 325 327 325 323
244 243 246 248 251 253 255 258 260 258 258 263 268 270 273 271 276 277 276 280 283 285 288 292 294 294 295 295 299 302 304 308 311 314 316 316 317 321 321 323 324 324 323 320
246 244 246 249 251 253 257 257 257 259 260 264 263 266 267 273 277 275 275 279 282 284 287 291 292 294 296 295 299 302 304 307 310 311 313 314 316 317 319 322 322 321 322 319
245 245 247 250 250 251 252 255 257 259 262 261 264 266 269 266 267 273 275 277 278 282 287 290 291 293 295 295 300 300 302 305 307 309 310 311 313 315 318 319 320 319 319 316
241 240 231 234 243 247 250 255 256 258 261 261 261 262 265 270 271 269 273 274 277 282 285 287 289 291 292 295 298 299 300 302 304 307 307 309 312 315 315 317 317 319 316 314
232 240 236 243 250 248 250 252 256 257 257 263 265 266 270 270 271 272 273 274 278 281 284 286 288 290 291 294 297 297 298 300 302 302 305 309 310 313 314 314 316 317 311 311
237 240 242 244 245 246 247 250 250 255 255 258 264 269 270 270 270 271 273 273 277 282 282 283 284 286 289 292 295 296 298 299 300 304 304 309 309 311 310 311 314 311 308 310
232 243 238 235 246 247 248 252 256 256 254 254 261 264 268 269 272 274 275 277 277 278 280 282 284 286 290 295 296 295 296 297 300 301 305 308 311 311 310 312 311 308 308 308
242 240 241 239 247 252 257 259 256 252 254 255 258 262 264 266 270 273 275 277 281 278 279 281 284 287 292 298 299 300 299 300 303 307 303 309 309 309 309 309 311 309 308 309
249 248 249 246 241 252 244 251 255 257 256 258 260 261 265 266 268 270 272 277 277 279 281 281 285 290 294 301 294 287 270 294 301 302 297 304 305 307 308 309 316 304 308 308
230 229 231 232 237 222 238 239 249 252 256 257 262 264 264 266 268 270 272 273 276 278 279 283 286 283 281 283 272 278 287 292 296 295 296 299 302 303 304 305 305 305 306 307
Height
11003 11002 11001 11001 11000 10999 10997 10995 10995 10994 10993 10990 10990 10988 10988 10989 10986 10984 10982 10982 10981 10980 10979 10977 10975 10973 10972 10970 10968 10966 10963 10960 10958 10955 10952 10949 10946 10942 10940 10937 10933 10931 10927 10925
10999 11000 10999 10999 10999 10999 10997 10995 10994 10993 10992 10993 10990 10989 10990 10989 10988 10985 10984 10983 10981 10980 10979 10977 10974 10971 10969 10967 10966 10964 10962 10959 10956 10952 10948 10943 10940 10937 10933 10931 10928 10923 10920 10917
10994 10996 10996 10996 10997 10996 10996 10995 10994 10992 10991 10989 10989 10989 10985 10989 10988 10985 10984 10983 10981 10978 10976 10975 10973 10972 10970 10968 10965 10962 10958 10955 10951 10948 10944 10940 10935 10930 10925 10921 10918 10914 10912 10909
10987 10990 10992 10993 10993 10993 10993 10993 10993 10992 10991 10989 10988 10987 10989 10989 10986 10983 10983 10983 10982 10979 10976 10975 10973 10972 10969 10965 10961 10958 10955 10952 10947 10944 10940 10935 10929 10925 10920 10915 10910 10905 10900 10897
10982 10985 10985 10987 10988 10989 10989 10990 10990 10990 10989 10988 10985 10985 10985 10984 10984 10983 10980 10980 10980 10978 10975 10971 10969 10967 10964 10961 10957 10954 10950 10947 10942 10938 10933 10928 10923 10919 10912 10907 10901 10895 10890 10885
10976 10978 10979 10980 10983 10984 10984 10985 10985 10986 10986 10985 10983 10981 10983 10979 10982 10979 10975 10970 10973 10972 10970 10967 10962 10959 10957 10954 10951 10949 10945 10941 10937 10931 10927 10922 10917 10910 10904 10898 10892 10886 10879 10874
10963 10967 10970 10974 10975 10977 10978 10979 10981 10981 10981 10980 10981 10979 10978 10978 10977 10977 10974 10971 10969 10966 10962 10961 10958 10954 10950 10947 10943 10939 10936 10932 10928 10923 10917 10912 10906 10901 10896 10891 10884 10878 10873 10867
10954 10959 10961 10964 10966 10970 10972 10972 10973 10974 10975 10975 10975 10973 10973 10974 10975 10974 10972 10970 10962 10960 10957 10953 10950 10947 10944 10940 10937 10933 10929 10925 10920 10916 10911 10906 10902 10895 10888 10881 10876 10869 10862 10857
10941 10946 10950 10955 10956 10960 10960 10964 10963 10966 10967 10967 10968 10969 10966 10965 10964 10963 10962 10959 10960 10954 10951 10949 10946 10942 10938 10934 10931 10926 10922 10918 10913 10908 10903 10896 10889 10885 10880 10873 10866 10859 10852 10846
10928 10932 10940 10943 10947 10952 10950 10951 10953 10956 10958 10959 10958 10958 10962 10964 10959 10958 10956 10954 10951 10952 10942 10941 10941 10937 10931 10927 10923 10921 10916 10911 10907 10901 10895 10889 10882 10874 10866 10861 10855 10848 10841 10834
10913 10919 10925 10930 10939 10939 10941 10942 10942 10945 10948 10949 10946 10949 10952 10956 10953 10952 10952 10950 10946 10942 10942 10934 10932 10930 10925 10921 10915 10913 10909 10905 10900 10893 10888 10882 10875 10867 10860 10852 10845 10838 10830 10822
10900 10904 10910 10921 10925 10923 10929 10932 10935 10933 10937 10937 10937 10933 10944 10943 10942 10943 10941 10939 10937 10934 10931 10926 10922 10920 10914 10910 10907 10901 10899 10894 10889 10882 10876 10869 10862 10854 10850 10843 10835 10827 10818 10809
10884 10891 10898 10903 10911 10916 10918 10922 10922 10923 10924 10929 10928 10923 10930 10931 10932 10935 10932 10929 10927 10920 10919 10914 10910 10906 10901 10896 10893 10890 10886 10883 10878 10872 10866 10859 10850 10843 10836 10828 10820 10811 10802 10793
10867 10877 10887 10892 10895 10900 10904 10904 10910 10912 10916 10917 10916 10904 10920 10917 10921 10921 10916 10919 10914 10915 10907 10903 10900 10899 10891 10886 10881 10878 10874 10872 10866 10860 10853 10846 10837 10828 10822 10816 10808 10798 10788 10779
10851 10864 10872 10879 10880 10884 10889 10895 10896 10899 10903 10903 10904 10897 10902 10900 10912 10911 10903 10901 10901 10900 10899 10895 10887 10884 10883 10874 10871 10867 10861 10855 10855 10845 10842 10835 10827 10818 10809 10799 10792 10783 10774 10765
10841 10850 10858 10863 10863 10868 10874 10879 10885 10888 10888 10890 10889 10887 10884 10887 10900 10900 10891 10888 10887 10886 10881 10880 10882 10873 10873 10866 10859 10856 10849 10842 10838 10835 10827 10820 10812 10805 10796 10786 10777 10769 10759 10749
10826 10838 10840 10848 10852 10851 10857 10871 10869 10869 10873 10877 10878 10872 10866 10882 10885 10880 10878 10872 10873 10871 10869 10868 10857 10864 10860 10854 10848 10847 10837 10831 10822 10817 10813 10805 10795 10788 10780 10770 10761 10753 10743 10734
10810 10817 10825 10834 10834 10834 10856 10848 10849 10848 10856 10861 10862 10861 10857 10859 10864 10861 10862 10861 10855 10855 10855 10852 10849 10842 10844 10838 10835 10827 10819 10813 10809 10802 10796 10787 10779 10772 10765 10757 10748 10738 10728 10717
10791 10807 10814 10813 10818 10827 10826 10824 10829 10829 10846 10842 10838 10848 10845 10854 10858 10840 10849 10850 10843 10841 10839 10835 10832 10825 10827 10819 10820 10808 10803 10797 10791 10787 10780 10772 10765 10757 10749 10743 10735 10724 10713 10705
10782 10797 10796 10782 10793 10804 10816 10807 10812 10814 10830 10823 10819 10825 10830 10833 10836 10829 10834 10832 10834 10828 10823 10821 10816 10814 10808 10804 10803 10791 10785 10781 10774 10770 10762 10756 10749 10741 10733 10728 10720 10708 10696 10689
10764 10760 10773 10771 10780 10791 10797 10791 10800 10797 10812 10800 10800 10808 10815 10819 10816 10806 10818 10818 10818 10815 10810 10804 10801 10799 10793 10787 10787 10772 10765 10762 10760 10755 10748 10741 10732 10723 10712 10705 10699 10688 10679 10672
10743 10746 10759 10761 10760 10774 10768 10759 10777 10781 10803 10792 10784 10791 10793 10794 10791 10794 10791 10799 10806 10794 10794 10791 10789 10786 10780 10774 10772 10762 10749 10743 10737 10732 10725 10723 10717 10708 10696 10690 10684 10673 10663 10657
10720 10731 10744 10741 10742 10745 10755 10746 10761 10768 10777 10782 10772 10770 10773 10769 10772 10774 10773 10765 10790 10783 10772 10773 10772 10773 10769 10763 10754 10740 10731 10723 10718 10714 10708 10703 10696 10688 10677 10666 10661 10655 10648 10642
10704 10725 10722 10726 10741 10749 10739 10739 10736 10744 10746 10753 10757 10760 10757 10756 10756 10757 10753 10744 10763 10756 10756 10754 10756 10753 10756 10756 10742 10725 10710 10697 10690 10686 10680 10678 10676 10667 10661 10653 10646 10637 10629 10622
10693 10705 10705 10709 10728 10738 10730 10721 10720 10727 10728 10732 10738 10740 10737 10738 10742 10737 10735 10734 10732 10733 10732 10734 10738 10740 10738 10741 10727 10724 10723 10688 10677 10664 10664 10658 10651 10647 10642 10639 10640 10615 10609 10598
10669 10672 10676 10682 10711 10708 10693 10702 10698 10704 10710 10713 10720 10717 10716 10719 10718 10716 10719 10717 10717 10711 10707 10717 10721 10720 10725 10750 10718 10695 10694 10678 10666 10655 10648 10644 10634 10625 10619 10620 10612 10601 10591 10580